Location: Albany
(35.0000°S, 118.0000°E)
Time: 17:08:25
(UTC-05:00)

ERS-1 Rocket - Visible Passes

Search period start: 24 November 2017 00:00
Search period end: 04 December 2017 00:00
Orbit: 753 x 758 km, 98.6° (Epoch: 24 November)

Date Brightness Start Highest point End Pass type
(mag) Time Alt. Az. Time Alt. Az. Time Alt. Az.
24 Nov 3.2 08:44:07 10° SSE 08:48:30 60° SE 08:48:30 60° SE visible
24 Nov 5.5 10:25:13 10° SW 10:27:20 13° WSW 10:28:30 12° WSW visible
25 Nov 4.3 08:05:18 10° SE 08:08:35 25° ESE 08:08:35 25° ESE visible
25 Nov 4.5 09:43:52 10° S 09:48:16 30° WSW 09:48:35 30° WSW visible
26 Nov 3.1 09:03:52 10° S 09:08:39 73° SW 09:08:39 73° SW visible
27 Nov 3.6 08:24:36 10° SSE 08:28:45 40° ESE 08:28:45 40° ESE visible
27 Nov 5.0 10:04:15 10° SSW 10:07:52 20° WSW 10:08:45 19° W visible
28 Nov 4.7 07:46:29 10° SE 07:48:49 16° E 07:48:49 16° E visible
28 Nov 3.7 09:23:47 10° S 09:28:40 47° WSW 09:28:49 47° WSW visible
29 Nov 3.0 08:44:10 10° SSE 08:48:54 65° ESE 08:48:54 65° ESE visible
29 Nov 5.5 10:25:15 10° SW 10:27:24 13° WSW 10:28:54 11° W visible
30 Nov 4.2 08:05:22 10° SE 08:08:58 26° E 08:08:58 26° E visible
30 Nov 4.4 09:43:55 10° S 09:48:20 30° WSW 09:48:58 29° W visible
01 Dec 3.0 09:03:55 10° S 09:09:02 76° WSW 09:09:03 76° WSW visible
02 Dec 3.5 08:24:40 10° SSE 08:29:07 41° E 08:29:07 41° E visible
02 Dec 5.0 10:04:18 10° SSW 10:07:55 20° WSW 10:09:07 18° W visible
03 Dec 4.7 07:46:34 10° SE 07:49:11 16° E 07:49:11 16° E visible
03 Dec 3.7 09:23:50 10° S 09:28:44 48° WSW 09:29:11 46° W visible
